Date String (YYYY-MM-DD hh:mm:ss) UTC,Instrument flags,absolute air pressure of the measurement (hPa),sample flow rate (lpm),inlet stack bypass flow (lpm),air temperature of the measurement (°C),ambient temperature measured by the external sensor (°C),aerosol sample conditioner tube jacket temperature (°C),OPC LED temperature (°C),internal box temperature (°C),relative humidity of the measurement (%),span deviation,mass concentration of particles derived from Lorenz-Mie calculation of OPC scattering (μg/m³),mass concentration of particles derived from Lorenz-Mie calculation of OPC scattering (μg/m³),mass concentration of particles derived from Lorenz-Mie calculation of OPC scattering (μg/m³)
DateTimeUTC,F1_M11,P_M11,Q1_M11,Q2_M11,T1_M11,T2_M11,T3_M11,T4_M11,T5_M11,U1_M11,ZSPAN_M11,X2_M11,X0_M11,X1_M11
2024-05-10 07:00:00,SystemResetWarning,0836.7,5.01,000.00,025.6,025.1,000.0,033.8,027.4,021.3,0000.0,0001.83,0003.66,0001.54
2024-05-10 07:01:00,SystemResetWarning,0836.7,5.00,000.00,025.6,025.1,000.0,033.8,027.4,021.3,0000.0,0001.84,0004.19,0001.55
2024-05-10 07:02:00,SystemResetWarning,0836.7,5.01,000.00,025.7,025.2,000.0,033.8,027.4,021.3,0000.0,0001.90,0004.12,0001.57
2024-05-10 07:03:00,SystemResetWarning,0836.7,5.00,000.00,025.7,025.2,000.0,033.8,027.5,021.2,0000.0,0001.86,0003.99,0001.56
2024-05-10 07:04:00,SystemResetWarning,0836.7,5.00,000.00,025.7,025.2,000.0,033.9,027.5,021.2,0000.0,0001.89,0005.06,0001.56
2024-05-10 07:05:00,SystemResetWarning,0836.7,5.00,000.00,025.7,025.2,000.0,033.9,027.5,021.0,0000.0,0001.88,0005.02,0001.56
2024-05-10 07:06:00,SystemResetWarning,0836.7,5.00,000.00,025.7,025.2,000.0,033.9,027.5,020.9,0000.0,0001.90,0004.93,0001.57
2024-05-10 07:07:00,SystemResetWarning,0836.8,5.00,000.00,025.8,025.3,000.0,033.9,027.5,020.8,0000.0,0001.95,0004.89,0001.58
2024-05-10 07:08:00,SystemResetWarning,0836.8,5.00,000.00,025.8,025.3,000.0,033.9,027.5,020.9,0000.0,0002.01,0004.99,0001.60
2024-05-10 07:09:00,SystemResetWarning,0836.8,5.00,000.00,025.8,025.3,000.0,034.0,027.6,021.0,0000.0,0002.07,0005.15,0001.61
2024-05-10 07:10:00,SystemResetWarning,0836.8,5.00,000.00,025.8,025.3,000.0,034.0,027.6,021.0,0000.0,0002.14,0005.30,0001.63
2024-05-10 07:11:00,SystemResetWarning,0836.8,5.00,000.00,025.8,025.3,000.0,034.0,027.6,020.9,0000.0,0002.19,0005.34,0001.64
2024-05-10 07:12:00,SystemResetWarning,0836.8,5.00,000.00,025.8,025.3,000.0,034.0,027.6,020.9,0000.0,0002.23,0004.85,0001.65
2024-05-10 07:13:00,SystemResetWarning,0836.8,5.00,000.00,025.8,025.3,000.0,034.0,027.6,020.9,0000.0,0002.27,0004.94,0001.66
2024-05-10 07:14:00,SystemResetWarning,0836.8,5.00,000.00,025.9,025.4,000.0,034.1,027.6,020.9,0000.0,0002.29,0004.91,0001.67
2024-05-10 07:15:00,SystemResetWarning,0836.8,5.00,000.00,025.9,025.4,000.0,034.1,027.6,020.8,0000.0,0002.31,0004.26,0001.67
2024-05-10 07:16:00,SystemResetWarning,0836.8,5.00,000.00,025.9,025.4,000.0,034.1,027.7,020.9,0000.0,0002.31,0003.98,0001.67
2024-05-10 07:17:00,SystemResetWarning,0836.8,5.00,000.00,025.9,025.4,000.0,034.1,027.7,020.9,0000.0,0002.35,0004.12,0001.67
2024-05-10 07:18:00,SystemResetWarning,0836.9,5.00,000.00,025.9,025.4,000.0,034.1,027.7,020.8,0000.0,0002.33,0004.14,0001.67
2024-05-10 07:19:00,SystemResetWarning,0836.9,5.00,000.00,025.9,025.4,000.0,034.1,027.7,020.8,0000.0,0002.29,0004.06,0001.65
2024-05-10 07:20:00,SystemResetWarning,0836.8,5.00,000.00,026.0,025.4,000.0,034.1,027.7,020.8,0000.0,0002.26,0004.75,0001.63
2024-05-10 07:21:00,SystemResetWarning,0836.8,5.00,000.00,026.0,025.4,000.0,034.2,027.7,020.7,0000.0,0002.23,0006.23,0001.62
2024-05-10 07:22:00,SystemResetWarning,0836.8,5.00,000.00,026.0,025.5,000.0,034.2,027.8,020.6,0000.0,0002.19,0006.31,0001.63
2024-05-10 07:23:00,SystemResetWarning,0836.8,4.99,000.00,026.0,025.5,000.0,034.2,027.8,020.6,0000.0,0002.17,0006.26,0001.62
2024-05-10 07:24:00,SystemResetWarning,0836.8,5.00,000.00,026.0,025.5,000.0,034.2,027.8,020.6,0000.0,0002.17,0006.42,0001.60
2024-05-10 07:25:00,SystemResetWarning,0836.8,5.00,000.00,026.0,025.5,000.0,034.2,027.8,020.6,0000.0,0002.17,0006.70,0001.60
2024-05-10 07:26:00,SystemResetWarning,0836.7,5.00,000.00,026.0,025.5,000.0,034.2,027.8,020.6,0000.0,0002.16,0006.62,0001.60
2024-05-10 07:27:00,SystemResetWarning,0836.7,5.00,000.00,026.1,025.5,000.0,034.3,027.8,020.6,0000.0,0002.21,0006.77,0001.62
2024-05-10 07:28:00,SystemResetWarning,0836.7,5.00,000.00,026.1,025.5,000.0,034.3,027.8,020.6,0000.0,0002.22,0006.95,0001.63
2024-05-10 07:29:00,SystemResetWarning,0836.6,5.00,000.00,026.1,025.5,000.0,034.3,027.8,020.5,0000.0,0002.25,0007.58,0001.61
2024-05-10 07:30:00,SystemResetWarning,0836.7,5.00,000.00,026.1,025.5,000.0,034.3,027.8,020.5,0000.0,0002.27,0007.63,0001.63
2024-05-10 07:31:00,SystemResetWarning,0836.7,5.00,000.00,026.1,025.5,000.0,034.3,027.8,020.5,0000.0,0002.27,0007.05,0001.64
2024-05-10 07:32:00,SystemResetWarning,0836.6,5.00,000.00,026.1,025.5,000.0,034.3,027.9,020.5,0000.0,0002.29,0006.75,0001.65
2024-05-10 07:33:00,SystemResetWarning,0836.6,5.00,000.00,026.1,025.6,000.0,034.3,027.9,020.5,0000.0,0002.33,0006.78,0001.65
2024-05-10 07:34:00,SystemResetWarning,0836.7,5.00,000.00,026.1,025.6,000.0,034.3,027.9,020.5,0000.0,0002.32,0006.81,0001.66
2024-05-10 07:35:00,SystemResetWarning,0836.6,5.01,000.00,026.1,025.6,000.0,034.3,027.9,020.5,0000.0,0002.28,0006.79,0001.66
2024-05-10 07:36:00,SystemResetWarning,0836.6,5.00,000.00,026.1,025.6,000.0,034.4,027.9,020.5,0000.0,0002.28,0006.55,0001.66
2024-05-10 07:37:00,SystemResetWarning,0836.7,5.01,000.00,026.1,025.6,000.0,034.4,027.9,020.5,0000.0,0002.28,0006.40,0001.66
2024-05-10 07:38:00,SystemResetWarning,0836.7,5.00,000.00,026.2,025.6,000.0,034.4,027.9,020.5,0000.0,0002.26,0006.48,0001.65
2024-05-10 07:39:00,SystemResetWarning,0836.7,4.99,000.00,026.2,025.6,000.0,034.4,027.9,020.5,0000.0,0002.24,0006.56,0001.64
2024-05-10 07:40:00,SystemResetWarning,0836.7,4.99,000.00,026.2,025.6,000.0,034.4,027.9,020.5,0000.0,0002.23,0006.38,0001.65
2024-05-10 07:41:00,SystemResetWarning,0836.7,5.01,000.00,026.2,025.6,000.0,034.4,027.9,020.5,0000.0,0002.26,0006.41,0001.66
2024-05-10 07:42:00,SystemResetWarning,0836.8,5.00,000.00,026.2,025.6,000.0,034.4,027.9,020.4,0000.0,0002.25,0007.36,0001.65
2024-05-10 07:43:00,SystemResetWarning,0836.8,5.00,000.00,026.2,025.6,000.0,034.4,027.9,020.4,0000.0,0002.25,0006.80,0001.65
2024-05-10 07:44:00,SystemResetWarning,0836.8,5.00,000.00,026.2,025.6,000.0,034.5,028.0,020.4,0000.0,0002.23,0006.57,0001.65
2024-05-10 07:45:00,SystemResetWarning,0836.8,5.00,000.00,026.2,025.6,000.0,034.5,028.0,020.4,0000.0,0002.25,0006.49,0001.65
2024-05-10 07:46:00,SystemResetWarning,0836.8,4.99,000.00,026.2,025.6,000.0,034.5,028.0,020.4,0000.0,0002.26,0006.13,0001.65
2024-05-10 07:47:00,SystemResetWarning,0836.8,4.98,000.00,026.2,025.7,000.0,034.5,028.0,020.4,0000.0,0002.22,0006.01,0001.65
2024-05-10 07:48:00,SystemResetWarning,0836.8,5.00,000.00,026.2,025.7,000.0,034.5,028.0,020.3,0000.0,0002.19,0005.92,0001.65
2024-05-10 07:49:00,SystemResetWarning,0836.8,5.02,000.00,026.3,025.7,000.0,034.5,028.0,020.4,0000.0,0002.19,0005.75,0001.65
2024-05-10 07:50:00,SystemResetWarning,0836.8,4.99,000.00,026.3,025.7,000.0,034.5,028.0,020.5,0000.0,0002.19,0005.62,0001.66
2024-05-10 07:51:00,SystemResetWarning,0836.7,4.99,000.00,026.3,025.7,000.0,034.5,028.0,020.6,0000.0,0002.19,0004.76,0001.66
2024-05-10 07:52:00,SystemResetWarning,0836.7,5.00,000.00,026.3,025.7,000.0,034.5,028.0,020.7,0000.0,0002.17,0004.70,0001.65
2024-05-10 07:53:00,SystemResetWarning,0836.6,5.02,000.00,026.3,025.7,000.0,034.5,028.0,021.0,0000.0,0002.18,0003.59,0001.65
2024-05-10 07:54:00,SystemResetWarning,0836.6,5.01,000.00,026.3,025.7,000.0,034.6,028.0,021.4,0000.0,0002.14,0003.23,0001.63
2024-05-10 07:55:00,SystemResetWarning,0836.6,5.00,000.00,026.3,025.7,000.0,034.6,028.1,021.6,0000.0,0002.12,0003.29,0001.61
2024-05-10 07:56:00,SystemResetWarning,0836.6,4.99,000.00,026.3,025.7,000.0,034.6,028.1,021.5,0000.0,0002.15,0003.37,0001.62
2024-05-10 07:57:00,SystemResetWarning,0836.5,4.99,000.00,026.2,024.8,000.0,034.6,027.5,021.7,0000.0,0002.15,0003.38,0001.62
2024-05-10 07:58:00,SystemResetWarning,0836.4,5.00,000.00,025.7,022.5,000.0,034.6,026.3,022.2,0000.0,0002.19,0003.46,0001.63
2024-05-10 07:59:00,SystemResetWarning,0836.4,5.00,000.00,025.4,022.1,000.0,034.6,026.0,022.4,0000.0,0002.23,0003.61,0001.64
